| time (UTC) | temp F | wind direction | speed knots | gust knots | rain 1hr in | rain 24hr in | rain mn in | humidity % | barometer mb |
| 20260509182820 | 82 | 246 | 3.5 | 4.3 | 0.00 | 0.00 | 0.00 | 91 | 1009.8 |
| 20260509182323 | 82 | 240 | 0.9 | 4.3 | 0.00 | 0.00 | 0.00 | 91 | 1009.9 |
| 20260509181836 | 82 | 244 | 2.6 | 7.8 | 0.00 | 0.00 | 0.00 | 91 | 1009.9 |
| 20260509181342 | 82 | 198 | 4.3 | 7.8 | 0.00 | 0.00 | 0.00 | 91 | 1010.0 |
| 20260509180824 | 82 | 240 | 0.9 | 7.0 | 0.00 | 0.00 | 0.00 | 92 | 1010.0 |
| 20260509180328 | 82 | 244 | 4.3 | 7.0 | 0.00 | 0.00 | 0.00 | 92 | 1010.2 |
| 20260509175834 | 82 | 197 | 1.7 | 5.2 | 0.00 | 0.00 | 0.00 | 91 | 1010.2 |
| 20260509175319 | 82 | 182 | 1.7 | 5.2 | 0.00 | 0.00 | 0.00 | 92 | 1010.3 |
| 20260509174826 | 82 | 271 | 2.6 | 5.2 | 0.00 | 0.00 | 0.00 | 92 | 1010.4 |
| 20260509174328 | 82 | 231 | 1.7 | 7.0 | 0.00 | 0.00 | 0.00 | 92 | 1010.3 |
| 20260509173833 | 81 | 202 | 2.6 | 7.0 | 0.00 | 0.00 | 0.00 | 92 | 1010.4 |
| 20260509173319 | 81 | 151 | 0.9 | 7.0 | 0.00 | 0.00 | 0.00 | 92 | 1010.4 |
| 20260509172821 | 81 | 242 | 3.5 | 7.0 | 0.00 | 0.00 | 0.00 | 92 | 1010.4 |
| 20260509172333 | 81 | 217 | 3.5 | 7.0 | 0.00 | 0.00 | 0.00 | 92 | 1010.4 |
| 20260509171854 | 81 | 158 | 2.6 | 6.1 | 0.00 | 0.00 | 0.00 | 92 | 1010.4 |
| 20260509171318 | 80 | 236 | 4.3 | 6.1 | 0.00 | 0.00 | 0.00 | 92 | 1010.4 |
| 20260509170845 | 80 | 263 | 0.9 | 6.1 | 0.00 | 0.00 | 0.00 | 92 | 1010.4 |
| 20260509170340 | 79 | 267 | 2.6 | 6.1 | 0.00 | 0.00 | 0.00 | 92 | 1010.5 |
| 20260509165845 | 79 | 222 | 3.5 | 6.1 | 0.00 | 0.00 | 0.00 | 92 | 1010.5 |
| 20260509165325 | 79 | 217 | 2.6 | 7.8 | 0.00 | 0.00 | 0.00 | 92 | 1010.7 |
| 20260509164826 | 78 | 242 | 3.5 | 7.8 | 0.00 | 0.00 | 0.00 | 92 | 1010.6 |
| 20260509164328 | 78 | 241 | 2.6 | 4.3 | 0.00 | 0.00 | 0.00 | 92 | 1010.6 |
| 20260509163842 | 78 | 232 | 1.7 | 5.2 | 0.00 | 0.00 | 0.00 | 92 | 1010.7 |
| 20260509163317 | 77 | 206 | 2.6 | 5.2 | 0.00 | 0.00 | 0.00 | 92 | 1010.7 |
| 20260509162850 | 76 | 234 | 2.6 | 4.3 | 0.00 | 0.00 | 0.00 | 92 | 1010.8 |
| 20260509162353 | 76 | 269 | 1.7 | 2.6 | 0.00 | 0.00 | 0.00 | 92 | 1011.0 |
| 20260509161903 | 76 | 269 | 1.7 | 3.5 | 0.00 | 0.00 | 0.00 | 92 | 1010.9 |
| 20260509161325 | 76 | 288 | 0.9 | 4.3 | 0.00 | 0.00 | 0.00 | 92 | 1011.0 |
| 20260509160828 | 76 | 311 | 1.7 | 3.5 | 0.00 | 0.00 | 0.00 | 92 | 1011.0 |
| 20260509160334 | 75 | 190 | 0.0 | 1.7 | 0.00 | 0.00 | 0.00 | 92 | 1010.9 |
| 20260509155821 | 75 | 188 | 0.0 | 2.6 | 0.00 | 0.00 | 0.00 | 92 | 1010.9 |
| 20260509155324 | 75 | 188 | 1.7 | 2.6 | 0.00 | 0.00 | 0.00 | 92 | 1010.9 |
| 20260509154855 | 75 | 186 | 0.0 | 0.9 | 0.00 | 0.00 | 0.00 | 92 | 1011.0 |
| 20260509154320 | 75 | 186 | 0.0 | 2.6 | 0.00 | 0.00 | 0.00 | 91 | 1011.0 |
| 20260509153827 | 75 | 186 | 0.9 | 2.6 | 0.00 | 0.00 | 0.00 | 91 | 1011.2 |
| 20260509153332 | 75 | 186 | 0.9 | 2.6 | 0.00 | 0.00 | 0.00 | 91 | 1011.3 |
| 20260509152838 | 75 | 186 | 0.9 | 2.6 | 0.00 | 0.00 | 0.00 | 91 | 1011.2 |
| 20260509152321 | 75 | 180 | 0.9 | 2.6 | 0.00 | 0.00 | 0.00 | 91 | 1011.1 |
| 20260509151825 | 75 | 173 | 0.9 | 3.5 | 0.00 | 0.00 | 0.00 | 91 | 1011.0 |
| 20260509151328 | 75 | 171 | 1.7 | 4.3 | 0.00 | 0.00 | 0.00 | 91 | 1011.0 |
| 20260509150840 | 74 | 162 | 1.7 | 5.2 | 0.00 | 0.00 | 0.00 | 91 | 1010.9 |
| 20260509150318 | 74 | 186 | 1.7 | 5.2 | 0.00 | 0.00 | 0.00 | 91 | 1010.9 |
| 20260509145826 | 74 | 222 | 0.0 | 3.5 | 0.00 | 0.00 | 0.00 | 91 | 1010.8 |
| 20260509145329 | 74 | 223 | 0.9 | 4.3 | 0.00 | 0.00 | 0.00 | 91 | 1010.7 |
| 20260509144835 | 74 | 223 | 1.7 | 4.3 | 0.00 | 0.00 | 0.00 | 91 | 1010.6 |
| 20260509144335 | 74 | 182 | 0.9 | 6.1 | 0.00 | 0.00 | 0.00 | 91 | 1010.5 |
| 20260509143821 | 74 | 200 | 2.6 | 6.1 | 0.00 | 0.00 | 0.00 | 91 | 1010.2 |
| 20260509143325 | 74 | 165 | 1.7 | 6.1 | 0.00 | 0.00 | 0.00 | 91 | 1010.0 |
| 20260509142829 | 74 | 171 | 2.6 | 6.1 | 0.00 | 0.00 | 0.00 | 91 | 1009.9 |
| 20260509142343 | 74 | 136 | 2.6 | 6.1 | 0.00 | 0.00 | 0.00 | 91 | 1010.0 |
| 20260509141849 | 74 | 153 | 1.7 | 4.3 | 0.00 | 0.00 | 0.00 | 91 | 1010.0 |
| 20260509141351 | 74 | 159 | 2.6 | 4.3 | 0.00 | 0.00 | 0.00 | 91 | 1009.9 |
| 20260509140837 | 74 | 224 | 0.0 | 2.6 | 0.00 | 0.00 | 0.00 | 91 | 1010.1 |
| 20260509140351 | 74 | 224 | 0.0 | 7.0 | 0.00 | 0.00 | 0.00 | 91 | 1010.1 |
| 20260509135835 | 74 | 224 | 1.7 | 7.0 | 0.00 | 0.00 | 0.00 | 91 | 1010.0 |
| 20260509135320 | 74 | 177 | 1.7 | 5.2 | 0.00 | 0.00 | 0.00 | 91 | 1009.9 |
| 20260509134822 | 74 | 227 | 0.9 | 6.1 | 0.00 | 0.00 | 0.00 | 91 | 1010.1 |
| 20260509134327 | 74 | 195 | 1.7 | 7.0 | 0.00 | 0.00 | 0.00 | 91 | 1010.0 |
| 20260509133835 | 73 | 216 | 3.5 | 6.1 | 0.00 | 0.00 | 0.00 | 91 | 1009.9 |
| 20260509133341 | 73 | 215 | 2.6 | 5.2 | 0.00 | 0.00 | 0.00 | 91 | 1009.8 |
| 20260509034817 | 73 | 174 | 1.7 | 3.5 | 0.00 | 0.38 | 0.38 | 87 | 1009.5 |
| 20260509034329 | 73 | 127 | 0.9 | 2.6 | 0.00 | 0.38 | 0.38 | 87 | 1009.6 |
| 20260509033835 | 73 | 127 | 1.7 | 5.2 | 0.00 | 0.38 | 0.38 | 87 | 1009.5 |
| 20260509033342 | 73 | 111 | 1.7 | 7.0 | 0.00 | 0.38 | 0.38 | 87 | 1009.1 |
| 20260509032828 | 74 | 137 | 2.6 | 7.0 | 0.00 | 0.38 | 0.38 | 87 | 1009.1 |
| 20260509032349 | 74 | 115 | 2.6 | 6.1 | 0.00 | 0.38 | 0.38 | 87 | 1009.1 |
| 20260509031842 | 74 | 97 | 2.6 | 6.1 | 0.00 | 0.38 | 0.38 | 87 | 1009.0 |
| 20260509031319 | 74 | 109 | 3.5 | 7.8 | 0.00 | 0.38 | 0.38 | 87 | 1009.0 |
| 20260509030831 | 74 | 135 | 3.5 | 8.7 | 0.00 | 0.38 | 0.38 | 87 | 1009.0 |
| 20260509030337 | 74 | 141 | 3.5 | 8.7 | 0.00 | 0.38 | 0.38 | 87 | 1008.9 |
| 20260509025823 | 74 | 126 | 2.6 | 7.8 | 0.00 | 0.38 | 0.38 | 87 | 1008.9 |
| 20260509025327 | 74 | 133 | 3.5 | 7.8 | 0.00 | 0.38 | 0.38 | 87 | 1008.8 |
| 20260509024829 | 74 | 144 | 3.5 | 7.8 | 0.00 | 0.38 | 0.38 | 87 | 1008.7 |
| 20260509024335 | 74 | 131 | 3.5 | 7.0 | 0.00 | 0.38 | 0.38 | 87 | 1008.7 |
| 20260509023822 | 74 | 161 | 1.7 | 5.2 | 0.00 | 0.38 | 0.38 | 87 | 1008.8 |
| 20260509023322 | 74 | 153 | 1.7 | 4.3 | 0.00 | 0.38 | 0.38 | 87 | 1008.8 |
| 20260509022828 | 74 | 151 | 1.7 | 3.5 | 0.00 | 0.38 | 0.38 | 87 | 1009.0 |
| 20260509022327 | 74 | 144 | 0.9 | 2.6 | 0.00 | 0.38 | 0.38 | 87 | 1008.9 |
| 20260509021843 | 75 | 144 | 0.9 | 2.6 | 0.00 | 0.38 | 0.38 | 87 | 1008.9 |
| 20260509021346 | 75 | 144 | 0.9 | 2.6 | 0.00 | 0.38 | 0.38 | 86 | 1008.8 |
| 20260509020828 | 75 | 145 | 1.7 | 4.3 | 0.00 | 0.38 | 0.38 | 86 | 1008.7 |
| 20260509020329 | 75 | 145 | 1.7 | 7.0 | 0.00 | 0.38 | 0.38 | 87 | 1008.6 |
| 20260509015832 | 75 | 163 | 1.7 | 7.0 | 0.00 | 0.38 | 0.38 | 87 | 1008.7 |
| 20260509015337 | 75 | 140 | 2.6 | 7.0 | 0.00 | 0.38 | 0.38 | 87 | 1008.7 |
| 20260509014849 | 75 | 139 | 2.6 | 7.0 | 0.00 | 0.38 | 0.38 | 87 | 1008.6 |
| 20260509014334 | 75 | 153 | 2.6 | 7.0 | 0.00 | 0.38 | 0.38 | 86 | 1008.6 |
| 20260509013820 | 75 | 142 | 3.5 | 7.0 | 0.00 | 0.38 | 0.38 | 86 | 1008.6 |
| 20260509013327 | 75 | 128 | 3.5 | 7.0 | 0.00 | 0.38 | 0.38 | 86 | 1008.6 |
| 20260509012829 | 75 | 130 | 2.6 | 6.1 | 0.00 | 0.38 | 0.38 | 86 | 1008.7 |
| 20260509012355 | 76 | 145 | 2.6 | 6.1 | 0.00 | 0.38 | 0.38 | 87 | 1008.7 |
| 20260509011839 | 76 | 136 | 2.6 | 7.0 | 0.00 | 0.38 | 0.38 | 87 | 1008.6 |
| 20260509011345 | 76 | 105 | 2.6 | 7.0 | 0.00 | 0.38 | 0.38 | 87 | 1008.6 |
| 20260509010826 | 76 | 127 | 1.7 | 6.1 | 0.00 | 0.38 | 0.38 | 87 | 1008.5 |
| 20260509010334 | 76 | 126 | 2.6 | 6.1 | 0.00 | 0.38 | 0.38 | 87 | 1008.4 |
| 20260509005819 | 76 | 121 | 2.6 | 7.8 | 0.00 | 0.38 | 0.38 | 86 | 1008.3 |
| 20260509005319 | 76 | 113 | 4.3 | 7.8 | 0.00 | 0.38 | 0.38 | 86 | 1008.3 |
| 20260509004830 | 76 | 134 | 4.3 | 7.0 | 0.00 | 0.38 | 0.38 | 86 | 1008.5 |
| 20260509004334 | 76 | 116 | 3.5 | 7.0 | 0.00 | 0.38 | 0.38 | 87 | 1008.5 |
| 20260509003821 | 76 | 101 | 3.5 | 6.1 | 0.00 | 0.38 | 0.38 | 87 | 1008.6 |
| 20260509003327 | 77 | 97 | 1.7 | 5.2 | 0.00 | 0.38 | 0.38 | 87 | 1008.6 |
| 20260509002828 | 77 | 90 | 1.7 | 6.1 | 0.00 | 0.38 | 0.38 | 87 | 1008.5 |
| 20260509002330 | 77 | 99 | 2.6 | 6.1 | 0.00 | 0.38 | 0.38 | 87 | 1008.6 |
| 20260509001837 | 77 | 88 | 2.6 | 7.8 | 0.00 | 0.38 | 0.38 | 87 | 1008.5 |
| 20260509001321 | 77 | 111 | 3.5 | 7.8 | 0.00 | 0.38 | 0.38 | 87 | 1008.6 |
| 20260509000835 | 77 | 132 | 3.5 | 7.8 | 0.00 | 0.38 | 0.38 | 87 | 1008.6 |
| 20260509000340 | 77 | 111 | 4.3 | 7.0 | 0.00 | 0.38 | 0.38 | 87 | 1008.6 |
| 20260508235845 | 77 | 132 | 3.5 | 7.0 | 0.00 | 0.38 | 0.38 | 87 | 1008.6 |
| 20260508235326 | 77 | 112 | 2.6 | 8.7 | 0.00 | 0.38 | 0.38 | 87 | 1008.5 |
| 20260508234832 | 77 | 86 | 1.7 | 8.7 | 0.00 | 0.38 | 0.38 | 87 | 1008.6 |
| 20260508234358 | 77 | 127 | 2.6 | 7.8 | 0.00 | 0.38 | 0.38 | 87 | 1008.6 |
| 20260508233849 | 77 | 111 | 4.3 | 7.8 | 0.00 | 0.38 | 0.38 | 87 | 1008.7 |
| 20260508233336 | 78 | 70 | 3.5 | 7.8 | 0.00 | 0.38 | 0.38 | 87 | 1008.6 |
| 20260508232843 | 78 | 118 | 3.5 | 7.8 | 0.00 | 0.38 | 0.38 | 87 | 1008.5 |
| 20260508232349 | 78 | 49 | 4.3 | 8.7 | 0.00 | 0.38 | 0.38 | 87 | 1008.5 |
| 20260508231829 | 78 | 63 | 3.5 | 8.7 | 0.00 | 0.38 | 0.38 | 87 | 1008.5 |
| 20260508231335 | 78 | 68 | 4.3 | 7.8 | 0.00 | 0.38 | 0.38 | 87 | 1008.5 |
| 20260508230819 | 78 | 79 | 4.3 | 7.0 | 0.00 | 0.38 | 0.38 | 87 | 1008.6 |
| 20260508230350 | 78 | 94 | 2.6 | 9.6 | 0.00 | 0.38 | 0.38 | 87 | 1008.7 |
| 20260508225849 | 78 | 88 | 6.1 | 9.6 | 0.00 | 0.38 | 0.38 | 87 | 1008.6 |
| 20260508225338 | 78 | 86 | 6.1 | 9.6 | 0.00 | 0.38 | 0.38 | 88 | 1008.6 |
| 20260508224844 | 78 | 78 | 2.6 | 5.2 | 0.00 | 0.38 | 0.38 | 87 | 1008.7 |
| 20260508224325 | 78 | 73 | 3.5 | 6.1 | 0.00 | 0.38 | 0.38 | 87 | 1008.8 |
| 20260508223829 | 78 | 51 | 2.6 | 6.1 | 0.00 | 0.38 | 0.38 | 88 | 1008.8 |
| 20260508223336 | 78 | 109 | 1.7 | 6.1 | 0.00 | 0.38 | 0.38 | 88 | 1008.9 |
| 20260508222822 | 78 | 99 | 2.6 | 5.2 | 0.00 | 0.38 | 0.38 | 88 | 1008.8 |
| 20260508222355 | 78 | 93 | 2.6 | 5.2 | 0.00 | 0.38 | 0.38 | 88 | 1008.7 |
| 20260508221840 | 78 | 99 | 2.6 | 3.5 | 0.00 | 0.38 | 0.38 | 88 | 1008.8 |
| 20260508221347 | 78 | 105 | 1.7 | 3.5 | 0.00 | 0.38 | 0.38 | 88 | 1008.9 |
| 20260508220830 | 78 | 106 | 0.0 | 0.9 | 0.00 | 0.38 | 0.38 | 88 | 1008.9 |
| 20260508220320 | 78 | 106 | 0.0 | 2.6 | 0.00 | 0.38 | 0.38 | 88 | 1009.0 |
| 20260508215850 | 78 | 106 | 0.9 | 2.6 | 0.00 | 0.38 | 0.38 | 88 | 1009.0 |
| 20260508215351 | 78 | 106 | 0.9 | 3.5 | 0.00 | 0.38 | 0.38 | 88 | 1009.1 |
| 20260508214836 | 78 | 96 | 1.7 | 7.0 | 0.00 | 0.38 | 0.38 | 88 | 1009.0 |
| 20260508214323 | 78 | 126 | 4.3 | 7.0 | 0.00 | 0.38 | 0.38 | 88 | 1009.0 |
| 20260508213857 | 78 | 148 | 2.6 | 6.1 | 0.00 | 0.38 | 0.38 | 89 | 1009.0 |
| 20260508213342 | 77 | 142 | 0.9 | 5.2 | 0.00 | 0.38 | 0.38 | 89 | 1009.0 |
| 20260508212849 | 77 | 187 | 2.6 | 5.2 | 0.00 | 0.38 | 0.38 | 89 | 1009.0 |
| 20260508212329 | 77 | 82 | 2.6 | 5.2 | 0.00 | 0.38 | 0.38 | 89 | 1009.1 |
| 20260508211900 | 77 | 76 | 1.7 | 4.3 | 0.00 | 0.38 | 0.38 | 89 | 1009.2 |
| 20260508211345 | 76 | 101 | 0.9 | 3.5 | 0.00 | 0.38 | 0.38 | 89 | 1009.3 |
| 20260508210826 | 77 | 115 | 1.7 | 6.1 | 0.00 | 0.38 | 0.38 | 89 | 1009.4 |
| 20260508210357 | 77 | 105 | 2.6 | 6.1 | 0.00 | 0.38 | 0.38 | 88 | 1009.6 |
| 20260508205845 | 77 | 85 | 1.7 | 3.5 | 0.00 | 0.38 | 0.38 | 89 | 1009.5 |
| 20260508205325 | 76 | 89 | 1.7 | 5.2 | 0.00 | 0.38 | 0.38 | 89 | 1009.6 |
| 20260508204827 | 76 | 84 | 0.9 | 5.2 | 0.00 | 0.38 | 0.38 | 89 | 1009.7 |
| 20260508204329 | 76 | 75 | 2.6 | 4.3 | 0.00 | 0.38 | 0.38 | 89 | 1009.7 |
| 20260508203837 | 76 | 76 | 3.5 | 7.8 | 0.00 | 0.38 | 0.38 | 89 | 1009.8 |
| 20260508203347 | 76 | 84 | 6.1 | 7.8 | 0.00 | 0.38 | 0.38 | 89 | 1009.9 |
| 20260508202831 | 76 | 67 | 1.7 | 4.3 | 0.00 | 0.38 | 0.38 | 89 | 1009.9 |
| 20260508202335 | 76 | 69 | 1.7 | 6.1 | 0.00 | 0.38 | 0.38 | 89 | 1010.1 |
| 20260508201823 | 76 | 84 | 4.3 | 7.8 | 0.00 | 0.38 | 0.38 | 89 | 1010.1 |
| 20260508201326 | 76 | 82 | 2.6 | 7.8 | 0.00 | 0.38 | 0.38 | 89 | 1010.1 |
| 20260508200857 | 76 | 44 | 0.9 | 6.1 | 0.00 | 0.38 | 0.38 | 89 | 1010.1 |
| 20260508200343 | 75 | 53 | 2.6 | 6.1 | 0.00 | 0.38 | 0.38 | 89 | 1010.2 |
| 20260508195828 | 75 | 94 | 1.7 | 5.2 | 0.00 | 0.38 | 0.38 | 89 | 1010.2 |
| 20260508195325 | 75 | 49 | 2.6 | 7.0 | 0.00 | 0.38 | 0.38 | 89 | 1010.3 |
| 20260508194829 | 75 | 5 | 3.5 | 7.0 | 0.00 | 0.38 | 0.38 | 89 | 1010.3 |
| 20260508194336 | 75 | 63 | 3.5 | 7.8 | 0.00 | 0.38 | 0.38 | 89 | 1010.4 |
| 20260508193837 | 75 | 61 | 5.2 | 7.8 | 0.00 | 0.38 | 0.38 | 89 | 1010.4 |
| 20260508193318 | 74 | 94 | 3.5 | 6.1 | 0.00 | 0.38 | 0.38 | 89 | 1010.5 |
| 20260508192831 | 74 | 61 | 1.7 | 5.2 | 0.00 | 0.38 | 0.38 | 89 | 1010.7 |
| 20260508192354 | 74 | 46 | 2.6 | 6.1 | 0.00 | 0.38 | 0.38 | 89 | 1010.7 |
| 20260508191819 | 74 | 94 | 3.5 | 5.2 | 0.00 | 0.38 | 0.38 | 89 | 1010.8 |
| 20260508191321 | 73 | 54 | 0.9 | 4.3 | 0.00 | 0.38 | 0.38 | 89 | 1010.8 |
| 20260508190832 | 73 | 56 | 2.6 | 4.3 | 0.00 | 0.38 | 0.38 | 89 | 1011.0 |
| 20260508190337 | 73 | 118 | 2.6 | 5.2 | 0.00 | 0.38 | 0.38 | 89 | 1011.1 |
| 20260508185824 | 72 | 102 | 1.7 | 3.5 | 0.00 | 0.38 | 0.38 | 89 | 1011.3 |
| 20260508185327 | 72 | 101 | 1.7 | 4.3 | 0.00 | 0.38 | 0.38 | 89 | 1011.3 |
| 20260508184829 | 72 | 101 | 2.6 | 4.3 | 0.00 | 0.38 | 0.38 | 89 | 1011.4 |
| 20260508184332 | 72 | 82 | 2.6 | 4.3 | 0.00 | 0.38 | 0.38 | 89 | 1011.4 |
| 20260508183830 | 72 | 79 | 1.7 | 4.3 | 0.00 | 0.38 | 0.38 | 89 | 1011.5 |
| 20260508183335 | 72 | 167 | 2.6 | 5.2 | 0.00 | 0.38 | 0.38 | 89 | 1011.5 |